Tracking 33470 objects as of 12-Mar-2026
HD Live streaming from Space Station
objects crossing your sky now

SL-14 R/B

Track SL-14 R/B now!
10-day predictions
SL-14 R/B is classified as:


NORAD ID: 21423
Int'l Code: 1991-042B
Perigee: 619.5 km
Apogee: 641.8 km
Inclination: 82.5 °
Period: 97.2 minutes
Semi major axis: 7001 km
RCS: 4.7234 m2 (large)
Launch date: June 13, 1991
Source: Commonwealth of Independent States (former USSR) (CIS)
Launch site: PLESETSK MISSILE AND SPACE COMPLEX (PKMTR)

Note: This is a ROCKET BODY
Your satellite tracking list
Your tracking list is empty




NASA's NSSDC Master Catalog

Two Line Element Set (TLE):
1 21423U 91042B   26070.91856584  .00000580  00000-0  70352-4 0  9993
2 21423  82.4929 218.0922 0015906 230.7794 129.2009 14.81832118853405
Source of the keplerian elements: AFSPC